Location: WHS+Essen
(51.3947°N, 6.9794°E)
Time: 12:27:25
(UTC+02:00)

ISS - Pass Details

Date: 25 March 2019
Orbit: 408 x 410 km, 51.6° (Epoch: 25 April)

Event Time Altitude Azimuth Distance (km) Brightness Sun altitude
Rises 21:48:22 0° 268° (W) 2,335 0.7 -25.7°
Reaches altitude 10° 21:50:28 10° 269° (W) 1,474 -0.4 -25.9°
Enters shadow 21:51:32 19° 271° (W) 1,046 -1.3 -26.1°
